Location: Unspecified
(0.0000°N, 0.0000°E)
Time: 15:47:16
(UTC+00:00)

Hubble Space Telescope - Pass Details

Date: 10 October 2022
Orbit: 530 x 534 km, 28.5° (Epoch: 04 December)

Event Time Altitude Azimuth Distance (km) Brightness Sun altitude
Rises 18:49:06 0° 301° (WNW) 2,648 5.2 -15.4°
Reaches altitude 10° 18:51:21 10° 302° (WNW) 1,760 4.1 -16.0°
Maximum altitude 18:55:25 84° 30° (NNE) 532 0.6 -17.0°
Enters shadow 18:57:08 33° 116° (ESE) 889 1.4 -17.4°
